Location: *
(42.5628°N, 2.3633°E)
Time: 08:00:58
(UTC+00:00)

STARLINK-1199 - Pass Details

Date: 30 March 2020
Orbit: 549 x 551 km, 53.0° (Epoch: 04 June)

Event Time Altitude Azimuth Distance (km) Brightness Sun altitude
Rises 18:53:04 0° 270° (W) 2,716 9.1 -7.8°
Reaches altitude 10° 18:55:34 10° 283° (WNW) 1,824 8.0 -8.2°
Maximum altitude 18:59:07 27° 341° (NNW) 1,090 5.5 -8.9°
Drops below altitude 10° 19:02:40 10° 40° (NE) 1,828 6.0 -9.5°
Enters shadow 19:04:57 - 53° (NE) 2,640 6.7 -9.9°
